Regional Weather Roundup
Issued by NWS San Angelo, TX

Home | Current Version | Previous Version | Graphics & Text | Print | Product List | Glossary Off
Versions: 1 2 3 4 5 6 7 8 9 10 11 12 13 14 15 16 17 18 19 20 21 22 23 24 25 26 27 28 29 30 31 32 33 34 35 36 37 38 39 40 41 42 43 44 45 46 47 48 49 50

000
ASUS44 KSJT 280110
RWRSJT
WEST CENTRAL TEXAS REGIONAL WEATHER ROUNDUP
NATIONAL WEATHER SERVICE SAN ANGELO TX
800 PM CDT TUE JUN 27 2017

NOTE: "FAIR" INDICATES FEW OR NO CLOUDS BELOW 12,000 FEET WITH NO
SIGNIFICANT WEATHER AND/OR OBSTRUCTIONS TO VISIBILITY.

TXZ049-054-064>066-071>073-076>078-098-099-113-114-127-128-139-140-
154-155-168>170-280200
...LOCATIONS ACROSS WEST CENTRAL TEXAS...

CITY           SKY/WX    TMP DP  RH WIND       PRES   REMARKS
SAN ANGELO     CLEAR     88  60  38 SE13      29.92S
ABILENE        CLEAR     85  66  53 SE15      29.93S
DYESS AFB      CLEAR     88  66  48 SE16      29.91S
JUNCTION       CLEAR     86  65  49 SE16      29.95R
SWEETWATER     NOT AVBL
BROWNWOOD      CLEAR     84  66  54 SE8       29.94S
COLEMAN        NOT AVBL
SONORA         NOT AVBL
OZONA          NOT AVBL
BRADY          NOT AVBL
$$

TEXAS PANHANDLE/OKLAHOMA PANHANDLE

CITY           SKY/WX    TMP DP  RH WIND       PRES   REMARKS
AMARILLO       NOT AVBL
BORGER         MOSUNNY   90  50  25 S17       29.87R
CANADIAN       NOT AVBL
DALHART        CLOUDY    86  55  34 S15       29.89R
DUMAS          NOT AVBL
GUYMON         NOT AVBL
HEREFORD       NOT AVBL
PAMPA          NOT AVBL
PERRYTON       NOT AVBL
$$

SOUTHERN PANHANDLE/SOUTH PLAINS/ROLLING PLAINS

CITY           SKY/WX    TMP DP  RH WIND       PRES   REMARKS
LUBBOCK        PTSUNNY   86  53  32 S20       29.95R
SNYDER         NOT AVBL
CHILDRESS      CLEAR     91  59  33 S21G28    29.87S
SEMINOLE       NOT AVBL
$$

PERMIAN BASIN

CITY           SKY/WX    TMP DP  RH WIND       PRES   REMARKS
MIDLAND        SUNNY     89  56  32 SE15      29.93S
ODESSA         SUNNY     89  56  32 SE13      29.94F
WINK           SUNNY     92  50  23 SE12      29.90S
$$

FAR WEST/SOUTHWEST MOUNTAINS/TRANS PECOS

CITY           SKY/WX    TMP DP  RH WIND       PRES   REMARKS
ALPINE         NOT AVBL
DRYDEN           N/A     88  63  43 SE13      29.91R
EL PASO        MOSUNNY   94  50  22 CALM      29.92F
FORT STOCKTON  SUNNY     90  54  29 SE12      29.92F
GUADALUPE PASS NOT AVBL
MARFA          SUNNY     81  56  42 SE14      30.07R
PECOS          NOT AVBL
$$

DALLAS/FORT WORTH METROPLEX

CITY           SKY/WX    TMP DP  RH WIND       PRES   REMARKS
DFW AIRPORT    MOCLDY    80  73  79 E9        29.91R
FTW MEACHAM    PTCLDY    85  71  63 E10       29.92R
DAL-EXECUTIVE  PTCLDY    81  75  82 N7        29.93R
GRAND PRAIRIE  CLEAR     82  70  65 NE8       29.94R
ADDISON        PTCLDY    81  72  74 E7        29.94R
MESQUITE       CLEAR     82  73  74 CALM      29.93S
LANCASTER      NOT AVBL
$$

NORTH CENTRAL TEXAS

CITY           SKY/WX    TMP DP  RH WIND       PRES   REMARKS
SHRMAN/DENISON NOT AVBL
GAINESVILLE    CLEAR     81  68  64 SE9       29.95S
BRIDGEPORT     NOT AVBL
DENTON         CLOUDY    81  69  67 SE7       29.93S
WAXAHACHIE     NOT AVBL
GRANBURY       NOT AVBL
$$

WESTERN NORTH TEXAS

CITY           SKY/WX    TMP DP  RH WIND       PRES   REMARKS
WICHITA FALLS  PTCLDY    87  67  51 S16       29.88F
VERNON         NOT AVBL
BRECKENRIDGE   NOT AVBL
COMANCHE       NOT AVBL
$$

CENTRAL AND SOUTH CENTRAL TEXAS

CITY           SKY/WX    TMP DP  RH WIND       PRES   REMARKS
AUSTIN/BERGSTM CLOUDY    78  70  76 SE6       29.95R
WACO           CLEAR     85  70  60 S15       29.92S
HILLSBORO      NOT AVBL
TEMPLE         CLEAR     82  71  69 SE14      29.95R
KILLEEN-GRAY   CLEAR     80  70  70 SE15      29.94R
FORT HOOD      CLEAR     81  68  65 S13       29.92R
GEORGETOWN     NOT AVBL
LAGO VISTA     NOT AVBL
SAN MARCOS     CLOUDY    75  73  94 SW3       29.95S
NEW BRAUNFELS  PTCLDY    76  73  91 N5        29.93F
RANDOLPH AFB   MOCLDY    78  71  78 SE7       29.94F
SAN ANTONIO    CLOUDY    77  68  73 E5        29.95F
STINSON        CLOUDY    78  69  73 E3        29.92S
PLEASANTON     NOT AVBL
LA GRANGE      CLOUDY    79  76  89 CALM      29.93S
GIDDINGS       NOT AVBL
$$

EAST TEXAS

CITY           SKY/WX    TMP DP  RH WIND       PRES   REMARKS
PARIS            N/A     82  69  64 SE9       29.97R
CLARKSVILLE    NOT AVBL
TYLER          CLEAR     84  71  65 E8        29.95R
LONGVIEW       CLEAR     83  71  67 E5        29.95R
PALESTINE      NOT AVBL
NACOGDOCHES    PTCLDY    82  72  69 SE6       29.94R
$$

TEXAS HILL COUNTRY AND EDWARDS PLATEAU

CITY           SKY/WX    TMP DP  RH WIND       PRES   REMARKS
LLANO          NOT AVBL
HORSESHOE BAY  NOT AVBL
KERRVILLE      NOT AVBL
FREDERICKSBRG  NOT AVBL
ROCKSPRINGS    NOT AVBL
HONDO          CLOUDY    74  72  93 N9        29.95R
UVALDE         NOT AVBL
DEL RIO        PTCLDY    88  66  48 SE14      29.87R
$$

SOUTHEAST TEXAS

CITY           SKY/WX    TMP DP  RH WIND       PRES   REMARKS
COLLEGE STN    CLOUDY    81  73  76 S9        29.94S
CALDWELL       NOT AVBL
CROCKETT       NOT AVBL
BRENHAM        NOT AVBL
HUNTSVILLE     CLOUDY    75  68  78 CALM      29.96S
CONROE         LGT RAIN  76  73  91 VRB3      29.95S
HOUSTON BUSH   MOCLDY    81  72  74 SE13      29.95R
HOUSTON HOBBY  MOCLDY    81  69  67 SE6       29.94R
PERLAND        NOT AVBL
WHARTON        NOT AVBL
$$

THE UPPER TEXAS COAST

CITY           SKY/WX    TMP DP  RH WIND       PRES   REMARKS
ORANGE         NOT AVBL
PORT ARTHUR    CLOUDY    81  73  76 E8        29.97R
GALVESTON      CLOUDY    80  74  81 E12       29.95R
ANGLETON       CLOUDY    80  73  79 E7        29.93R
BAY CITY       NOT AVBL
$$

TEXAS COASTAL BEND, RIO GRANDE PLAINS DEEP SOUTH TEXAS

CITY           SKY/WX    TMP DP  RH WIND       PRES   REMARKS
VICTORIA       MOCLDY    76  73  91 N5        29.92S
BEEVILLE       NOT AVBL
ROCKPORT       PTCLDY    81  73  76 E15       29.87F
PORT ARANSAS   NOT AVBL
PORT LAVACA    NOT AVBL
CORPUS CHRISTI PTCLDY    85  73  67 E14       29.88S
KINGSVILLE NAS PTCLDY    83  74  74 E10       29.88R
COTULLA        CLOUDY    80  70  71 E13       29.90R
LAREDO         PTCLDY    85  70  60 E18G24    29.87R
BROWNSVILLE    PTCLDY    82  74  76 E7        29.86R
PORT ISABEL    CLOUDY    83  75  77 E12       29.85R
HEBBRONVILLE   NOT AVBL
MCALLEN        MOCLDY    88  72  58 E10       29.84R
WESLACO        NOT AVBL
FALFURRIAS     NOT AVBL
EDINBURG       NOT AVBL
$$



USA.gov is the U.S. government's official web portal to all federal, state and local government web resources and services.